Regional Weather Roundup
Issued by NWS Northern Indiana

Home | Current Version | Previous Version | Graphics & Text | Print | Product List | Glossary On
Versions: 1 2 3 4 5 6 7 8 9 10 11 12 13 14 15 16 17 18 19 20 21 22 23 24 25 26 27 28 29 30 31 32 33 34 35 36 37 38 39 40 41 42 43 44 45 46 47 48 49 50
000
ASUS43 KIWX 300010
RWRIWX

KIWX WEATHER ROUNDUP
NATIONAL WEATHER SERVICE NORTHERN INDIANA
800 PM EDT MON JUN 29 2015

NOTE: "FAIR" INDICATES FEW OR NO CLOUDS BELOW 12,000 FEET WITH NO
SIGNIFICANT WEATHER AND/OR OBSTRUCTIONS TO VISIBILITY.

* THESE STATIONS ARE NOT UNDER NWS QUALITY CONTROL. THEY ALSO MAY NOT
  REPORT WEATHER SUCH AS PRECIPITATION OR FOG.

INZ001>027-300100-
NORTHERN INDIANA

CITY           SKY/WX    TMP DP  RH WIND       PRES   REMARKS
GARY*          PTSUNNY   72  68  88 CALM      29.80S
VALPARAISO     PTSUNNY   70  64  81 CALM      29.81S
6HR MIN TEMP:  66; 6HR MAX TEMP:  72; 6HR PCP: TRACE;

MICHIGAN CITY* CLOUDY    68  61  77 CALM      29.81R
LAPORTE*       MOSUNNY   69  64  84 SE5       29.82S
6HR MIN TEMP:  68; 6HR MAX TEMP:  73;

KNOX*          PTSUNNY   68  63  83 E8        29.80F
SOUTH BEND     SUNNY     68  60  75 E9        29.82R
6HR MIN TEMP:  67; 6HR MAX TEMP:  71; 6HR PCP: TRACE;

ELKHART*       PTSUNNY   66  59  77 SE8       29.83S
GOSHEN         CLOUDY    64  59  83 E5        29.83R
6HR MIN TEMP:  64; 6HR MAX TEMP:  67; 6HR PCP:  0.09;

MONTICELLO*    CLOUDY    69  66  93 S3        29.81R
6HR MIN TEMP:  69; 6HR MAX TEMP:  74; 6HR PCP:  0.02;

LOGANSPORT*    CLOUDY    68  63  83 CALM      29.82S
ROCHESTER*     MOSUNNY   68  63  83 E6        29.82S
WARSAW*          N/A     63  59  88 E5        29.83S
ANGOLA*        CLOUDY    63  52  67 SE7       29.84S
FORT WAYNE     PTSUNNY   65  60  84 CALM      29.83R
6HR MIN TEMP:  64; 6HR MAX TEMP:  65;

HUNTINGTON*    CLOUDY    64  60  87 CALM      29.83S
6HR MIN TEMP:  64; 6HR MAX TEMP:  66;

MARION*        CLOUDY    67  62  83 NE5       29.82S
6HR MIN TEMP:  52; 6HR MAX TEMP:  76; 6HR PCP:  0.19;


$$
INZ028>050-300100-
CENTRAL INDIANA

CITY           SKY/WX    TMP DP  RH WIND       PRES   REMARKS
LAFAYETTE      LGT RAIN  68  65  90 NW5       29.80S
6HR MIN TEMP:  67; 6HR MAX TEMP:  75; 6HR PCP:  0.08;

KOKOMO*        CLOUDY    68  64  88 N3        29.81S
6HR MIN TEMP:  68; 6HR MAX TEMP:  73; 6HR PCP:  0.03;

MUNCIE*        CLOUDY    70  62  76 NE6       29.81R
6HR MIN TEMP:  68; 6HR MAX TEMP:  74;

INDIANAPOLIS   PTSUNNY   74  63  68 W9        29.80R
6HR MIN TEMP:  69; 6HR MAX TEMP:  77;


$$
MIZ043>046-050>051-056>058-064>065-071>073-077>080-300100-
SOUTHWEST LOWER MICHIGAN

CITY           SKY/WX    TMP DP  RH WIND       PRES   REMARKS
BATTLE CREEK   SUNNY     69  58  67 S8        29.84R
6HR MIN TEMP:  69; 6HR MAX TEMP:  74;

BENTON HARBOR  PTSUNNY   69  60  73 SE8       29.81R
6HR MIN TEMP:  69; 6HR MAX TEMP:  73;

COLDWATER*     CLOUDY    64  57  79 SE5       29.84S
6HR MIN TEMP:  64; 6HR MAX TEMP:  71;

HILLSDALE*     LGT RAIN  64  62  94 CALM      29.84S
6HR MIN TEMP:  64; 6HR MAX TEMP:  72;

HOLLAND        MOSUNNY   72  61  68 S8        29.82R
6HR MIN TEMP:  70; 6HR MAX TEMP:  77;

GRAND RAPIDS   MOSUNNY   72  58  61 S10       29.81S
6HR MIN TEMP:  70; 6HR MAX TEMP:  75;

KALAMAZOO      MOSUNNY   68  57  68 S6        29.83S
6HR MIN TEMP:  68; 6HR MAX TEMP:  75;

STURGIS*         N/A     63  59  88 SE5       29.84R
THREE RIVERS*  CLOUDY    65  58  79 S6        29.84R
6HR MIN TEMP:  65; 6HR MAX TEMP:  68;


$$
OHZ001>008-015>018-024>025-300100-
NORTHWEST OHIO

CITY           SKY/WX    TMP DP  RH WIND       PRES   REMARKS
DEFIANCE       CLOUDY    63  60  90 E6        29.83S
6HR MIN TEMP:  62; 6HR MAX TEMP:  64; 6HR PCP:  0.01;

FINDLAY        CLOUDY    63  59  87 E9        29.81F
6HR MIN TEMP:  62; 6HR MAX TEMP:  67; 6HR PCP: TRACE;

TOLEDO EXPRESS CLOUDY    64  57  78 E7        29.83S
6HR MIN TEMP:  64; 6HR MAX TEMP:  70;

TOLEDO METCALF CLOUDY    66  56  70 SE12      29.84S
6HR MIN TEMP:  66; 6HR MAX TEMP:  69;

LIMA           CLOUDY    63  61  93 E6        29.82R FOG
6HR MIN TEMP:  61; 6HR MAX TEMP:  63; 6HR PCP:  0.01;


$$
AND FOR LAKE MICHIGAN COASTAL AND OPEN LAKE BUOY OBSERVATIONS

STATION/POSITION TEMP    WIND        PRES    VSBY  WAVE
                 AIR SEA DIR/SP/G                  HT/PER
                 (F)     (DEG/KT/KT) (MB)    (MI)  (FT/S)
CALUMET HARBOR    66      40/  2/  4   N/A
MICHIGAN CITY     67     350/  6/  7   N/A
BURNS HARBOR      68      50/  6/  7 1009.5F
SAINT JOSEPH      70     180/  2/  5 1009.8S
4 MI NW BRIDGMAN  68 65                N/A           0
MICHIGAN CITY     66 67   10/  4/  4   N/A           0

$$
&&


USA.gov is the U.S. government's official web portal to all federal, state and local government web resources and services.